GW6301 Weather Reports


time (UTC)temp
F
wind
direction
speed
knots
gust
knots
rain 1hr
in
rain 24hr
in
rain mn
in
humidity
%
barometer
mb
20260507021251 45 173 0.0 0.9 0.00 0.00 0.33 94 1009.8
20260507020751 45 154 0.0 0.0 0.00 0.00 0.33 94 1009.8
20260507020253 45 122 0.0 0.9 0.00 0.00 0.33 94 1010.2
20260507015751 45 215 0.0 0.9 0.00 0.00 0.33 94 1010.2
20260507015251 45 277 0.0 0.9 0.00 0.00 0.33 94 1010.2
20260507014758 45 192 0.0 0.9 0.00 0.00 0.33 94 1010.2
20260507014251 45 256 0.0 0.9 0.00 0.00 0.33 94 1010.2
20260507013751 45 243 0.0 0.9 0.00 0.00 0.33 94 1010.2
20260507013251 45 348 0.9 2.6 0.00 0.00 0.33 94 1010.2
20260507012752 45 75 0.0 0.9 0.00 0.00 0.33 94 1010.2
20260507012251 45 194 0.0 1.7 0.00 0.00 0.33 94 1010.2
20260507011752 45 354 0.0 0.9 0.00 0.00 0.33 94 1010.2
20260507011251 45 309 0.0 0.9 0.00 0.00 0.33 94 1010.2
20260507010751 45 308 0.0 0.0 0.00 0.00 0.33 94 1009.8
20260507010252 45 296 0.0 0.9 0.00 0.00 0.33 94 1009.8
20260507005751 45 325 0.0 1.7 0.00 0.00 0.33 94 1009.8
20260507005251 45 111 0.0 1.7 0.00 0.00 0.33 94 1009.8
20260507004751 45 247 0.9 2.6 0.00 0.00 0.33 94 1009.8
20260507004251 45 226 0.9 2.6 0.00 0.00 0.33 94 1009.5
20260507003752 45 39 0.0 1.7 0.00 0.00 0.33 93 1009.8
20260507003251 45 281 0.0 0.9 0.00 0.00 0.33 93 1009.5
20260507002752 45 355 0.0 1.7 0.00 0.00 0.33 93 1009.5
20260507002254 45 157 0.0 2.6 0.00 0.00 0.33 94 1009.5
20260507001751 45 324 0.9 4.3 0.00 0.00 0.33 94 1009.5
20260507001251 45 331 0.0 1.7 0.00 0.00 0.33 94 1009.5
20260507000751 45 247 1.7 3.5 0.00 0.00 0.33 94 1009.5
20260507000251 45 242 0.0 2.6 0.00 0.00 0.33 94 1009.5
20260506235751 45 245 0.0 1.7 0.00 0.00 0.33 94 1009.5
20260506235252 45 345 0.9 2.6 0.00 0.00 0.33 94 1009.1
20260506234751 45 218 1.7 5.2 0.00 0.00 0.33 94 1009.1
20260506234252 45 247 0.0 0.0 0.00 0.00 0.33 94 1009.1
20260506233752 45 310 0.0 0.9 0.00 0.00 0.33 93 1008.8
20260506233252 46 88 0.0 1.7 0.00 0.00 0.33 93 1009.1
20260506232751 45 260 0.0 1.7 0.00 0.00 0.33 93 1009.1
20260506232251 45 332 0.0 1.7 0.00 0.00 0.33 93 1008.8
20260506231751 45 302 0.0 0.9 0.00 0.00 0.33 93 1008.8
20260506231251 45 10 0.0 2.6 0.00 0.00 0.33 93 1008.8
20260506230752 45 43 0.9 3.5 0.00 0.00 0.33 93 1008.8
20260506230251 45 303 0.9 1.7 0.00 0.00 0.33 93 1008.8
20260506225751 45 313 0.9 2.6 0.00 0.00 0.33 93 1008.8
20260506225251 46 51 0.0 1.7 0.00 0.00 0.33 93 1008.8
20260506224751 45 317 0.0 1.7 0.00 0.00 0.33 93 1008.8
20260506224251 46 242 0.0 1.7 0.00 0.00 0.33 93 1008.5
20260506223751 46 34 0.0 2.6 0.00 0.00 0.33 93 1008.5
20260506223251 45 304 0.9 2.6 0.00 0.00 0.33 93 1008.5
20260506222751 46 282 0.9 3.5 0.00 0.00 0.33 94 1008.8
20260506222251 46 60 0.9 3.5 0.00 0.00 0.33 94 1008.8
20260506221754 46 284 0.9 5.2 0.00 0.00 0.33 94 1008.8
20260506221251 45 323 1.7 6.1 0.00 0.00 0.33 94 1008.8
20260506220753 46 318 1.7 2.6 0.00 0.00 0.33 94 1008.5
20260506220251 46 343 1.7 3.5 0.00 0.00 0.33 93 1008.5
20260506215751 46 260 1.7 4.3 0.00 0.00 0.33 94 1008.5
20260506215252 46 333 1.7 3.5 0.00 0.00 0.33 93 1008.5
20260506214751 46 39 1.7 6.1 0.00 0.00 0.33 93 1008.5
20260506214251 46 283 0.0 1.7 0.00 0.00 0.33 94 1008.1
20260506213751 46 332 0.9 3.5 0.00 0.00 0.33 94 1008.5
20260506213251 46 284 1.7 4.3 0.00 0.00 0.33 94 1008.1
20260506212751 46 290 0.9 3.5 0.00 0.00 0.33 94 1008.1
20260506212251 46 2 0.9 4.3 0.00 0.00 0.33 94 1008.1
20260506211751 46 214 1.7 3.5 0.00 0.00 0.33 94 1008.1
20260506211251 46 119 2.6 7.8 0.00 0.00 0.33 94 1008.1
20260506210751 46 182 2.6 5.2 0.00 0.00 0.33 94 1008.1
20260506210251 46 108 1.7 5.2 0.00 0.00 0.33 94 1008.1
20260506205751 47 242 1.7 4.3 0.00 0.00 0.33 94 1007.8
20260506205252 47 65 1.7 5.2 0.00 0.00 0.33 93 1007.8
20260506204752 47 167 2.6 7.8 0.00 0.00 0.33 92 1007.8
20260506204251 47 5 2.6 7.8 0.00 0.00 0.33 92 1007.5
20260506203751 48 12 2.6 7.0 0.00 0.00 0.33 91 1007.5
20260506203252 48 308 0.9 4.3 0.00 0.00 0.33 92 1007.5
20260506202751 48 16 2.6 7.8 0.00 0.00 0.33 93 1007.5
20260506202252 48 265 0.9 2.6 0.00 0.00 0.33 92 1007.1
20260506201751 48 310 1.7 7.0 0.00 0.00 0.33 92 1007.1
20260506201252 48 19 2.6 6.1 0.00 0.00 0.33 92 1007.1
20260506200752 48 291 1.7 4.3 0.00 0.00 0.33 93 1007.1
20260506200251 48 338 0.9 2.6 0.00 0.00 0.33 94 1007.1
20260506195753 48 138 0.9 5.2 0.00 0.00 0.33 93 1007.1
20260506195251 47 70 1.7 5.2 0.00 0.00 0.33 94 1007.1
20260506194751 47 70 0.9 4.3 0.00 0.00 0.33 94 1007.1
20260506194252 47 207 2.6 11.3 0.00 0.00 0.32 94 1006.8
20260506193752 48 124 1.7 3.5 0.00 0.00 0.32 94 1007.1
20260506193252 49 337 0.9 1.7 0.00 0.00 0.32 94 1006.8
20260506192751 49 30 0.9 2.6 0.00 0.00 0.32 94 1007.1
20260506192251 48 271 0.9 2.6 0.00 0.00 0.32 94 1006.8
20260506191751 48 324 1.7 3.5 0.00 0.00 0.32 94 1006.8
20260506191251 48 309 1.7 3.5 0.00 0.00 0.32 94 1006.8
20260506190751 49 5 1.7 5.2 0.00 0.00 0.32 94 1006.8
20260506190251 49 296 1.7 4.3 0.00 0.00 0.31 94 1006.8
20260506185751 49 295 0.9 2.6 0.00 0.00 0.31 94 1006.8
20260506185251 50 218 0.9 3.5 0.00 0.00 0.31 94 1006.4
20260506184751 50 70 0.9 2.6 0.00 0.00 0.31 95 1006.4
20260506184255 49 188 0.9 4.3 0.00 0.00 0.31 94 1006.4
20260506183752 49 30 1.7 2.6 0.00 0.00 0.31 94 1006.4
20260506183252 49 358 0.9 3.5 0.00 0.00 0.31 94 1006.4
20260506182751 49 350 1.7 4.3 0.00 0.00 0.30 94 1006.1
20260506182252 49 2 0.9 3.5 0.00 0.00 0.30 94 1006.4
20260506181752 49 42 0.9 4.3 0.00 0.00 0.30 94 1006.4
20260506181252 49 354 0.9 4.3 0.00 0.00 0.30 94 1006.4
20260506180753 50 4 0.0 1.7 0.00 0.00 0.30 94 1006.1
20260506180254 50 22 0.9 3.5 0.00 0.00 0.30 93 1006.1
20260506175751 49 45 1.7 4.3 0.00 0.00 0.30 93 1006.1
20260506175251 49 6 1.7 5.2 0.00 0.00 0.30 94 1006.1
20260506174753 49 20 1.7 4.3 0.00 0.00 0.30 94 1006.1
20260506174251 49 101 0.9 2.6 0.00 0.00 0.30 94 1006.1
20260506173752 49 91 0.9 2.6 0.00 0.00 0.30 94 1006.1
20260506173252 49 19 1.7 5.2 0.00 0.00 0.30 93 1006.1
20260506172752 49 52 0.9 3.5 0.00 0.00 0.30 93 1006.1
20260506172251 48 65 2.6 6.1 0.00 0.00 0.30 93 1006.1
20260506171752 49 348 0.9 4.3 0.00 0.00 0.30 93 1006.1
20260506171252 49 54 0.0 2.6 0.00 0.00 0.30 93 1006.1
20260506170326 49 91 0.0 1.7 0.00 0.00 0.30 94 1005.8
20260506165751 49 98 0.9 2.6 0.00 0.00 0.30 93 1005.8
20260506165251 49 314 0.0 1.7 0.00 0.00 0.30 94 1005.8
20260506164751 49 281 2.6 7.8 0.00 0.00 0.30 93 1006.1
20260506164253 50 60 0.9 2.6 0.00 0.00 0.30 93 1006.1
20260506163751 50 10 0.0 1.7 0.00 0.00 0.30 93 1006.1
20260506163252 50 332 0.9 2.6 0.00 0.00 0.30 94 1005.8
20260506162752 50 50 0.0 1.7 0.00 0.00 0.30 94 1005.8
20260506162251 49 347 0.9 3.5 0.00 0.00 0.30 94 1005.8
20260506161751 49 324 0.9 2.6 0.00 0.00 0.30 94 1006.1
20260506161251 49 355 1.7 4.3 0.00 0.00 0.30 93 1005.8
20260506160751 50 303 0.9 1.7 0.00 0.00 0.29 93 1005.8
20260506160251 50 351 0.0 1.7 0.00 0.00 0.29 94 1005.8
20260506155751 50 207 0.9 2.6 0.00 0.00 0.29 94 1005.8
20260506155251 51 192 0.0 2.6 0.00 0.00 0.29 94 1005.8
20260506154752 51 307 0.0 0.9 0.00 0.00 0.29 93 1005.8
20260506154251 51 42 0.0 0.9 0.00 0.00 0.29 94 1005.8
20260506153751 51 0 0.0 1.7 0.00 0.00 0.29 93 1005.8
20260506153252 50 329 0.0 1.7 0.00 0.00 0.29 94 1005.8
20260506152752 51 28 0.9 3.5 0.00 0.00 0.29 94 1006.1
20260506152251 51 324 0.9 2.6 0.00 0.00 0.28 93 1006.1
20260506151751 51 54 0.9 3.5 0.00 0.00 0.28 93 1006.1
20260506151251 52 320 0.9 3.5 0.00 0.00 0.28 94 1005.8
20260506150751 53 349 1.7 3.5 0.00 0.00 0.28 94 1005.8
20260506150251 55 300 0.9 2.6 0.00 0.00 0.28 95 1005.8
20260506145751 55 69 0.0 2.6 0.00 0.00 0.28 96 1005.4
20260506145252 55 0 0.0 0.9 0.00 0.00 0.28 97 1005.4
20260506144752 55 102 0.0 1.7 0.00 0.00 0.28 97 1005.4
20260506144252 55 240 0.9 2.6 0.00 0.00 0.28 97 1005.1
20260506143752 55 274 0.9 2.6 0.00 0.00 0.28 97 1005.4
20260506143252 55 265 0.9 2.6 0.00 0.00 0.28 97 1005.4
20260506142752 55 19 0.9 2.6 0.00 0.00 0.28 97 1005.4
20260506142252 55 309 0.0 2.6 0.00 0.00 0.28 97 1005.4
20260506141751 55 180 0.9 3.5 0.00 0.00 0.28 97 1005.4
20260506141252 55 26 0.0 1.7 0.00 0.00 0.28 97 1005.4
20260506140753 55 32 0.9 2.6 0.00 0.00 0.28 97 1005.4
20260506140251 54 302 0.0 1.7 0.00 0.00 0.28 97 1005.4
20260506135752 54 256 0.0 3.5 0.00 0.00 0.27 97 1005.4
20260506135252 53 295 0.0 0.9 0.00 0.00 0.27 97 1005.8
20260506134751 53 258 0.9 2.6 0.00 0.00 0.27 97 1005.8
20260506134252 53 263 0.0 1.7 0.00 0.00 0.27 97 1005.8
20260506133752 53 342 0.0 0.9 0.00 0.00 0.27 97 1005.8
20260506133252 52 98 0.0 0.9 0.00 0.00 0.26 97 1006.1
20260506132751 52 223 0.0 0.9 0.00 0.00 0.25 97 1006.1
20260506132252 52 243 0.9 3.5 0.00 0.00 0.25 97 1006.1
20260506131752 52 83 0.0 1.7 0.00 0.00 0.24 97 1006.1
20260506131252 52 267 0.9 2.6 0.00 0.00 0.23 96 1006.4
20260506130751 52 285 0.9 1.7 0.00 0.00 0.22 96 1006.1
20260506130251 52 303 0.0 1.7 0.00 0.00 0.20 96 1006.1
20260506125752 52 49 0.0 0.0 0.00 0.00 0.19 96 1006.1
20260506125251 52 8 0.0 0.9 0.00 0.00 0.19 96 1006.1
20260506124753 52 94 0.0 0.0 0.00 0.00 0.18 96 1006.1
20260506124252 52 75 0.0 0.0 0.00 0.00 0.17 96 1006.1
20260506123751 51 357 0.0 0.0 0.00 0.00 0.16 96 1005.8
20260506123251 51 173 0.0 0.9 0.00 0.00 0.15 95 1005.8
20260506122753 51 169 0.0 0.0 0.00 0.00 0.14 96 1005.8
20260506122251 51 359 0.0 0.9 0.00 0.00 0.13 96 1005.8
20260506121752 51 331 0.0 0.9 0.00 0.00 0.13 95 1005.8
20260506121251 51 324 0.0 0.9 0.00 0.00 0.12 95 1005.8
20260506120751 51 352 0.0 1.7 0.00 0.00 0.12 95 1005.8
20260506120257 51 344 0.0 1.7 0.00 0.00 0.12 95 1005.8
20260506115751 51 17 0.0 1.7 0.00 0.00 0.11 95 1006.1
20260506115252 51 18 0.9 2.6 0.00 0.00 0.11 95 1006.1
20260506114751 51 26 0.0 1.7 0.00 0.00 0.11 96 1006.1
20260506114251 50 128 0.0 2.6 0.00 0.00 0.10 97 1006.1
20260506113752 50 65 0.9 3.5 0.00 0.00 0.10 98 1006.1
20260506113251 50 3 0.0 1.7 0.00 0.00 0.09 99 1006.1
20260506112751 50 295 0.9 2.6 0.00 0.00 0.07 100 1006.1
20260506112251 50 244 0.0 0.9 0.00 0.00 0.07 100 1006.4
20260506111753 50 63 0.0 1.7 0.00 0.00 0.06 100 1006.1
20260506111251 50 30 0.0 0.0 0.00 0.00 0.06 100 1006.1
20260506110751 50 357 0.0 0.0 0.00 0.00 0.05 100 1006.4
20260506110251 50 353 0.0 0.0 0.00 0.00 0.05 100 1006.1
20260506105751 50 354 0.0 0.0 0.00 0.00 0.05 100 1006.1
20260506105251 50 354 0.0 0.0 0.00 0.00 0.05 100 1006.1
20260506104752 49 20 0.0 0.9 0.00 0.00 0.05 100 1006.1
20260506104252 49 356 0.0 0.9 0.00 0.00 0.04 100 1006.1
20260506103752 49 30 0.0 0.9 0.00 0.00 0.04 100 1006.1
20260506103252 49 30 0.9 2.6 0.00 0.00 0.04 100 1006.1
20260506102751 49 238 0.0 1.7 0.00 0.00 0.04 100 1006.1
20260506102251 49 195 0.0 1.7 0.00 0.00 0.04 100 1006.1
20260506101305 49 51 0.0 1.7 0.00 0.00 0.03 100 1006.4
20260506100752 49 36 0.0 0.0 0.00 0.00 0.03 100 1006.4
20260506100251 49 87 0.0 0.0 0.00 0.00 0.03 100 1006.4
20260506095751 49 26 0.0 0.9 0.00 0.00 0.03 100 1006.4
20260506095252 49 134 0.0 0.0 0.00 0.00 0.02 100 1006.4
20260506094751 49 191 0.9 2.6 0.00 0.00 0.02 100 1006.4
20260506094251 49 151 0.9 2.6 0.00 0.00 0.02 100 1006.4
20260506093751 49 68 0.0 0.0 0.00 0.00 0.02 100 1006.4
20260506093252 49 314 0.0 1.7 0.00 0.00 0.01 100 1006.4
20260506092751 49 307 0.0 1.7 0.00 0.00 0.01 99 1006.4
20260506092254 49 14 0.0 0.9 0.00 0.00 0.01 99 1006.4
20260506091751 49 62 0.0 1.7 0.00 0.00 0.01 98 1006.4
20260506091252 49 24 0.9 1.7 0.00 0.00 0.01 97 1006.4
20260506090752 50 7 0.0 0.9 0.00 0.00 0.01 97 1006.4
20260506090251 50 23 0.9 3.5 0.00 0.00 0.01 96 1006.4
20260506085751 50 15 0.9 2.6 0.00 0.00 0.01 96 1006.4
20260506085251 50 347 0.9 2.6 0.00 0.00 0.00 96 1006.4
20260506084751 50 38 0.0 1.7 0.00 0.00 0.00 95 1006.4
20260506084251 50 246 0.0 2.6 0.00 0.00 0.00 95 1006.4
20260506083751 50 8 0.9 1.7 0.00 0.00 0.00 94 1006.4
20260506083252 50 12 0.0 1.7 0.00 0.00 0.00 94 1006.4
20260506082751 50 117 0.9 2.6 0.00 0.00 0.00 94 1006.4
20260506082251 50 77 0.0 0.9 0.00 0.00 0.00 94 1006.4
20260506081751 50 31 0.9 2.6 0.00 0.00 0.00 94 1006.4
20260506081251 50 300 0.9 2.6 0.00 0.00 0.00 94 1006.4
20260506080751 50 39 0.9 3.5 0.00 0.00 0.00 94 1006.4
20260506080252 50 22 1.7 4.3 0.00 0.00 0.00 94 1006.4
20260506073251 49 13 0.9 3.5 0.00 0.00 0.00 95 1006.4
20260506072751 49 350 1.7 3.5 0.00 0.00 0.00 95 1006.8
20260506072251 49 46 1.7 5.2 0.00 0.00 0.00 96 1006.8
20260506071751 49 9 2.6 6.1 0.00 0.00 0.00 96 1006.8
20260506071251 49 12 1.7 6.1 0.00 0.00 0.00 96 1007.1
20260506070751 49 54 1.7 3.5 0.00 0.00 0.00 96 1007.1
20260506070251 49 74 0.9 2.6 0.00 0.00 0.00 97 1007.1
20260506062251 48 38 0.0 1.7 0.00 0.00 0.00 96 1007.8
20260506061752 48 304 0.0 0.0 0.00 0.00 0.00 96 1007.5
20260506061252 48 60 0.0 0.9 0.00 0.00 0.00 96 1007.8
20260506060751 48 51 0.0 0.0 0.00 0.00 0.00 96 1007.8
20260506060251 48 3 0.0 1.7 0.00 0.00 0.00 96 1007.8
20260506051252 49 69 0.0 0.9 0.00 0.00 0.00 94 1008.5
20260506050752 49 310 0.0 1.7 0.00 0.00 0.00 94 1008.5
20260506050251 50 80 0.0 0.0 0.00 0.00 0.00 94 1008.5
20260506044752 50 333 0.0 0.9 0.00 0.00 0.00 93 1008.5
20260506044252 50 12 0.0 0.0 0.00 0.00 0.00 92 1008.5
20260506043751 50 63 0.0 1.7 0.00 0.00 0.00 92 1008.5
20260506043252 50 319 0.0 2.6 0.00 0.00 0.00 91 1008.5
20260506042752 51 84 0.0 1.7 0.00 0.00 0.00 91 1008.5
20260506042251 51 2 0.9 2.6 0.00 0.00 0.00 91 1008.5
20260506041751 51 6 0.9 2.6 0.00 0.00 0.00 90 1008.5
20260506041251 51 16 0.0 2.6 0.00 0.00 0.00 90 1008.5
20260506040752 52 32 0.0 1.7 0.00 0.00 0.00 90 1008.5
20260506040251 52 54 0.0 1.7 0.00 0.00 0.21 89 1008.5
20260506035751 52 43 0.9 3.5 0.00 0.00 0.21 90 1008.8
20260506035251 52 49 0.9 2.6 0.00 0.00 0.21 90 1008.5
20260506034752 52 217 0.9 2.6 0.00 0.00 0.21 89 1008.8
20260506034251 52 93 0.9 2.6 0.00 0.00 0.21 89 1008.8
20260506033752 52 8 0.0 0.9 0.00 0.00 0.21 89 1008.8
20260506033251 52 316 0.9 3.5 0.00 0.00 0.21 89 1008.8
20260506032752 52 27 1.7 4.3 0.00 0.00 0.21 88 1008.8
20260506032251 52 33 0.9 3.5 0.00 0.00 0.21 88 1009.1
20260506031751 52 19 1.7 3.5 0.00 0.00 0.21 87 1008.8
20260506031251 52 20 1.7 3.5 0.00 0.00 0.21 87 1008.8
20260506030751 52 5 1.7 5.2 0.00 0.00 0.21 87 1008.8
20260506030252 52 34 1.7 4.3 0.00 0.00 0.21 87 1008.8
20260506025751 53 54 1.7 3.5 0.00 0.00 0.21 87 1009.1
20260506025256 53 65 1.7 6.1 0.00 0.00 0.21 87 1009.1
20260506024752 53 106 0.9 4.3 0.00 0.00 0.21 87 1009.1
20260506024251 53 63 0.9 4.3 0.00 0.00 0.21 88 1009.1
20260506023751 53 55 1.7 3.5 0.00 0.00 0.21 87 1009.1
20260506023252 53 45 0.9 2.6 0.00 0.00 0.21 88 1009.5
20260506022753 53 95 0.9 4.3 0.00 0.00 0.21 87 1009.5
20260506022251 53 58 0.9 3.5 0.00 0.00 0.21 87 1009.1
20260506021751 53 55 0.9 2.6 0.00 0.00 0.21 88 1009.1